Time,TemperatureF,DewpointF,PressureIn,WindDirection,WindDirectionDegrees,WindSpeedMPH,WindSpeedGustMPH,Humidity,HourlyPrecipIn,Conditions,Clouds,dailyrainin,SoftwareType,DateUTC
2013-07-07 00:00:00,73.8,68.0,29.94,NW,315,0.0,0.0,82,0.00,,SKC,0.00,VWS V14.01,2013-07-07 04:00:00,
2013-07-07 01:00:00,72.6,67.5,29.95,NW,315,0.0,7.0,84,0.00,,SKC,0.00,VWS V14.01,2013-07-07 05:00:00,
2013-07-07 02:00:00,71.5,66.4,29.93,WNW,292,0.0,6.0,84,0.00,,SKC,0.00,VWS V14.01,2013-07-07 06:00:00,
2013-07-07 03:00:00,70.0,65.3,29.92,NW,315,0.0,2.0,85,0.00,,SKC,0.00,VWS V14.01,2013-07-07 07:00:00,
2013-07-07 04:00:00,69.0,64.6,29.92,NNE,22,0.0,4.0,86,0.00,,SKC,0.00,VWS V14.01,2013-07-07 08:00:00,
2013-07-07 05:00:00,68.1,63.4,29.92,NNE,22,0.0,2.0,85,0.00,,SKC,0.00,VWS V14.01,2013-07-07 09:00:00,
2013-07-07 06:00:00,67.0,63.0,29.93,NNE,22,0.0,0.0,87,0.00,,SKC,0.00,VWS V14.01,2013-07-07 10:00:00,
2013-07-07 07:00:00,67.0,63.3,29.93,NNE,22,0.0,2.0,88,0.00,,SKC,0.00,VWS V14.01,2013-07-07 11:00:00,
2013-07-07 08:00:00,67.6,63.3,29.94,NNE,22,0.0,6.0,86,0.00,,SKC,0.00,VWS V14.01,2013-07-07 12:00:00,
2013-07-07 09:00:00,68.8,62.7,29.95,NNW,338,0.0,6.0,81,0.00,,SKC,0.00,VWS V14.01,2013-07-07 13:00:00,
2013-07-07 10:00:00,69.9,65.5,29.96,NNW,338,0.0,5.0,86,0.01,,SKC,0.01,VWS V14.01,2013-07-07 14:00:00,
2013-07-07 11:00:00,69.4,64.7,29.95,NNW,338,0.0,8.0,85,0.01,,SKC,0.01,VWS V14.01,2013-07-07 15:00:00,
2013-07-07 12:00:00,70.3,63.5,29.95,North,0,0.0,7.0,79,0.00,,SKC,0.01,VWS V14.01,2013-07-07 16:00:00,
2013-07-07 13:00:00,73.2,64.0,29.93,North,0,0.0,9.0,73,0.00,,SKC,0.01,VWS V14.01,2013-07-07 17:00:00,
2013-07-07 14:00:00,74.5,63.7,29.92,NNW,338,0.0,6.0,69,0.00,,SKC,0.01,VWS V14.01,2013-07-07 18:00:00,
2013-07-07 15:00:00,75.7,64.8,29.91,North,0,1.0,9.0,69,0.00,,SKC,0.01,VWS V14.01,2013-07-07 19:00:00,
2013-07-07 16:00:00,76.8,65.0,29.88,NNW,338,1.0,9.0,67,0.00,,SKC,0.01,VWS V14.01,2013-07-07 20:00:00,
2013-07-07 17:00:00,77.5,64.8,29.88,North,0,0.0,8.0,65,0.00,,SKC,0.01,VWS V14.01,2013-07-07 21:00:00,
2013-07-07 18:00:00,76.9,63.8,29.86,NNW,338,1.0,9.0,64,0.00,,SKC,0.01,VWS V14.01,2013-07-07 22:00:00,
2013-07-07 19:00:00,78.2,64.1,29.87,North,0,0.0,8.0,62,0.00,,SKC,0.01,VWS V14.01,2013-07-07 23:00:00,
2013-07-07 20:00:00,77.0,65.6,29.88,NNW,338,0.0,9.0,68,0.00,,SKC,0.01,VWS V14.01,2013-07-08 00:00:00,
2013-07-07 21:00:00,74.5,64.9,29.90,NNE,22,0.0,4.0,72,0.00,,SKC,0.01,VWS V14.01,2013-07-08 01:00:00,
2013-07-07 22:00:00,71.8,64.9,29.91,NNE,22,0.0,0.0,79,0.00,,SKC,0.01,VWS V14.01,2013-07-08 02:00:00,
2013-07-07 23:00:00,70.1,64.4,29.92,NNE,22,0.0,4.0,82,0.00,,SKC,0.01,VWS V14.01,2013-07-08 03:00:00,